Regional Weather Roundup
Issued by NWS State College, PA

Home | Current Version | Previous Version | Text Only | Print | Product List | Glossary Off
Versions: 1 2 3 4 5 6 7 8 9 10 11 12 13 14 15 16 17 18 19 20 21 22 23 24 25 26 27 28 29 30 31 32 33 34 35 36 37 38 39 40 41 42 43 44 45 46 47 48 49 50

000
ASUS41 KCTP 061303
RWRCTP

REGIONAL WEATHER ROUNDUP
NATIONAL WEATHER SERVICE STATE COLLEGE PA
800 AM EST SAT FEB 06 2016

Note: "fair" indicates few or no clouds below 12,000 feet with no
significant weather and/or obstructions to visibility.

* = STATION THAT DOES NOT REPORT PRECIPITATION /E.G. RAIN...SNOW...ETC/
    THUNDER OR FOG.

PAZ002>004-007>009-013>016-020>023-029>032-061400-
WESTERN PENNSYLVANIA

CITY           SKY/WX    TMP DP  RH WIND       PRES   REMARKS
ERIE           MOCLDY    31  22  69 SW12      30.28R
MEADVILLE      CLEAR     29  17  61 SW7       30.24R
FRANKLIN*      CLOUDY    28  16  59 SW8       30.27S
NEW CASTLE     FAIR      30  19  63 S5        30.30R
BEAVER COUNTY  NOT AVBL
BUTLER*        CLOUDY    28  16  59 S7        30.33R
PITTSBURGH INT MOCLDY    31  15  52 SW6       30.30R
PITTSBURGH     MOCLDY    29  17  61 S9        30.30R
INDIANA*       CLOUDY    28  19  69 SW6       30.33S
LATROBE        NOT AVBL
WASHINGTON CO*   N/A     28  16  59 S3        30.31S
$$

PAZ004>006-010>012-017>019-024>028-033>037-041-042-045-046-049>053-061400-
CENTRAL PENNSYLVANIA

CITY           SKY/WX    TMP DP  RH WIND       PRES   REMARKS
BRADFORD       CLOUDY    25  16  68 S6        30.21R
DUBOIS         CLOUDY    27  15  61 SW9       30.25R
CLEARFIELD     CLOUDY    23  16  74 W3        30.30R
JOHNSTOWN      CLOUDY    25  13  60 S8        30.26S
ALTOONA        CLOUDY    25  16  68 SW3       30.33R
STATE COLLEGE  CLOUDY    25  19  80 CALM      30.33R
WILLIAMSPORT   CLOUDY    25  19  78 CALM      30.37S
SELINSGROVE    CLOUDY    22  19  89 CALM      30.40R
FT INDIANTOWN  CLOUDY    21  21  98 CALM      30.41R
CAPITAL CITY   PTCLDY    25  17  72 SW3       30.42R
HARRISBURG     MOCLDY    26  19  74 CALM      30.42R
YORK           PTCLDY    21  19  92 CALM      30.41R
$$

PAZ038>040-043-044-047-048-054-055-060>062-067>071-061400-
EASTERN PENNSYLVANIA

CITY           SKY/WX    TMP DP  RH WIND       PRES   REMARKS
SCRANTON       CLOUDY    24  17  74 NE3       30.36R
MOUNT POCONO   CLOUDY    22  14  71 W3        30.30R
ALLENTOWN      CLOUDY    23  18  81 CALM      30.41R
QUAKERTOWN*    CLOUDY    19  18  93 CALM      30.41S
READING        CLOUDY    24  19  81 CALM      30.42R
LANCASTER      CLOUDY    23  19  85 CALM      30.42R
COATESVILLE    CLOUDY    27  21  80 SW3       30.42R
POTTSTOWN      CLOUDY    22  20  92 CALM      30.43S
BLUE BELL        N/A     23  21  93 CALM      30.42S
DOYLESTOWN     PTCLDY    21  18  88 CALM      30.40S
WILLOW GROVE   NOT AVBL
NORTH PHILA    CLOUDY    26  21  81 CALM      30.45R
PHILADELPHIA   MOCLDY    30  23  75 SW3       30.45R
$$



USA.gov is the U.S. government's official web portal to all federal, state and local government web resources and services.